Regional Weather Roundup
Issued by NWS

Home | Current Version | Previous Version | Text Only | Print | Product List | Glossary On
Versions: 1 2 3 4 5 6 7 8 9 10 11 12 13 14 15 16 17 18 19 20 21 22 23 24 25 26 27 28 29 30 31 32 33 34 35 36 37 38 39 40 41 42 43 44 45 46 47 48 49 50
991
ASUS43 KMKX 230610
RWRWI

WISCONSIN REGIONAL WEATHER ROUNDUP
NATIONAL WEATHER SERVICE MILWAUKEE/SULLIVAN WI
1200 AM CST THU NOV 23 2017

NOTE: "FAIR" INDICATES FEW OR NO CLOUDS BELOW 12,000 FEET WITH NO
SIGNIFICANT WEATHER AND/OR OBSTRUCTIONS TO VISIBILITY.

WIZ001-002-006>008-014>016-023>028-230700-
NORTHWEST WISCONSIN

CITY           SKY/WX    TMP DP  RH WIND       PRES   REMARKS
SUPERIOR ARPT  CLOUDY    24  22  89 CALM      29.98F
6HR MIN TEMP:  23; 6HR MAX TEMP:  24;

ASHLAND        CLOUDY    25  18  74 SW8       29.98F WCI  16
6HR MIN TEMP:  23; 6HR MAX TEMP:  25; 6HR PCP: TRACE;

HAYWARD        CLOUDY    25  19  78 S3        29.96F
6HR MIN TEMP:  22; 6HR MAX TEMP:  25; 6HR PCP: TRACE;

SIREN          CLOUDY    26  19  76 SE3       29.96F
6HR MIN TEMP:  23; 6HR MAX TEMP:  26;

CUMBERLAND     CLOUDY    25  18  74 SE3       29.96S
RICE LAKE      CLOUDY    26  20  77 SE7       29.98F WCI  19
6HR MIN TEMP:  23; 6HR MAX TEMP:  26;

CHETEK         CLOUDY    26  19  76 SE7       29.96F WCI  18
6HR MIN TEMP:  23; 6HR MAX TEMP:  26;

LADYSMITH      CLOUDY    26  20  80 SE6       29.99F WCI  19
6HR MIN TEMP:  23; 6HR MAX TEMP:  26;

EAU CLAIRE     CLOUDY    29  17  61 SE6       29.97F WCI  23
6HR MIN TEMP:  25; 6HR MAX TEMP:  29; 6HR PCP: TRACE;

MENOMONIE      CLOUDY    30  19  62 E6        29.97F WCI  24
6HR MIN TEMP:  27; 6HR MAX TEMP:  30;

NEW RICHMOND   CLOUDY    28  17  65 SE3       29.95F
6HR MIN TEMP:  26; 6HR MAX TEMP:  30;

OSCEOLA        CLOUDY    26  19  74 SE6       29.98F WCI  19
6HR MIN TEMP:  26; 6HR MAX TEMP:  30;

$$

WIZ003>005-009-010-017-018-230700-
NORTH CENTRAL WISCONSIN

CITY           SKY/WX    TMP DP  RH WIND       PRES   REMARKS
MANITOWISH WTR CLOUDY    22  20  94 SW6       29.96S WCI  14
6HR MIN TEMP:  21; 6HR MAX TEMP:  22;

ARBOR VITAE    CLOUDY    23  20  88 SW5       29.96F WCI  17
6HR MIN TEMP:  23; 6HR MAX TEMP:  24;

WOODRUFF       CLOUDY    23  20  88 SW5       29.96F WCI  17
6HR MIN TEMP:  23; 6HR MAX TEMP:  24;

RHINELANDER    CLOUDY    22  20  92 SW12      29.97F WCI  10
6HR MIN TEMP:  22; 6HR MAX TEMP:  23; 6HR PCP: TRACE;

EAGLE RIVER    CLOUDY    22  18  82 SW12      29.96F WCI  11
6HR MIN TEMP:  22; 6HR MAX TEMP:  23;

LAND O LAKES   CLOUDY    23  19  84 SW7       29.97F WCI  15
6HR MIN TEMP:  23; 6HR MAX TEMP:  24;

PHILLIPS       CLOUDY    22  20  93 S6        29.96F WCI  14
6HR MIN TEMP:  20; 6HR MAX TEMP:  22;

TOMAHAWK       CLOUDY    22  20  91 S5        29.98F WCI  16
6HR MIN TEMP:  21; 6HR MAX TEMP:  22;

MEDFORD        CLOUDY    24  19  81 S8        29.98F WCI  16
6HR MIN TEMP:  22; 6HR MAX TEMP:  24;

MERRILL        CLOUDY    24  22  91 SW3       30.02F
6HR MIN TEMP:  23; 6HR MAX TEMP:  25;

$$

WIZ029-030-035-036-043>047-230700-
CENTRAL WISCONSIN

CITY           SKY/WX    TMP DP  RH WIND       PRES   REMARKS
WAUSAU         CLOUDY    25  19  78 SW8       30.02F WCI  16
6HR MIN TEMP:  24; 6HR MAX TEMP:  25; 6HR PCP: TRACE;

MOSINEE        CLOUDY    27  21  80 S6        30.03F WCI  20
MARSHFIELD     CLOUDY    27  18  69 S10       30.00F WCI  17
6HR MIN TEMP:  25; 6HR MAX TEMP:  27; 6HR PCP: TRACE;

STEVENS POINT  CLOUDY    25  19  80 S5        30.04F WCI  19
6HR MIN TEMP:  24; 6HR MAX TEMP:  26;

WAUPACA        CLOUDY    29  24  81 S3        30.08F
6HR MIN TEMP:  29; 6HR MAX TEMP:  31;

WAUTOMA        CLOUDY    28  21  75 S3        30.08F
6HR MIN TEMP:  27; 6HR MAX TEMP:  29;

WISC RAPIDS    CLOUDY    28  19  69 SW5       30.06F WCI  23
6HR MIN TEMP:  27; 6HR MAX TEMP:  29; 6HR PCP: TRACE;

CAMP DOUGLAS   CLOUDY    31  15  52 S5        30.05F WCI  26
6HR MIN TEMP:  29; 6HR MAX TEMP:  31; 6HR PCP: TRACE;

$$

WIZ011>013-019>022-031-037>040-048>050-230700-
NORTHEAST WISCONSIN

CITY           SKY/WX    TMP DP  RH WIND       PRES   REMARKS
ANTIGO         CLOUDY    23  20  89 SW9       30.00F WCI  13
6HR MIN TEMP:  22; 6HR MAX TEMP:  24;

SHAWANO        CLOUDY    30  19  63 SW5       30.06F WCI  25
6HR MIN TEMP:  29; 6HR MAX TEMP:  31;

OCONTO         CLOUDY    29  17  61 SW8       30.06F WCI  21
6HR MIN TEMP:  28; 6HR MAX TEMP:  29;

STURGEON BAY   CLOUDY    29  19  66 SW13      30.06F WCI  19
6HR MIN TEMP:  27; 6HR MAX TEMP:  29;

GREEN BAY      CLOUDY    29  24  82 SW12G18   30.08F WCI  19
6HR MIN TEMP:  29; 6HR MAX TEMP:  30;

MANITOWOC      NOT AVBL
APPLETON       CLOUDY    28  25  86 SW9       30.06F WCI  20
CLINTONVILLE   CLOUDY    28  21  74 SW8       30.07F WCI  20
OSHKOSH        CLOUDY    28  24  85 S6        30.08F WCI  22
6HR MIN TEMP:  27; 6HR MAX TEMP:  30; 6HR PCP:  0.01;

$$

WIZ032>034-041-042-053>061-230700-
SOUTHWEST WISCONSIN

CITY           SKY/WX    TMP DP  RH WIND       PRES   REMARKS
LA CROSSE      CLOUDY    34  18  52 S10       30.03F WCI  26
6HR MIN TEMP:  32; 6HR MAX TEMP:  34;

SPARTA         CLOUDY    32  18  55 S7        30.05F WCI  25
6HR MIN TEMP:  29; 6HR MAX TEMP:  32;

VIROQUA        CLOUDY    31  19  62 S10       30.03F WCI  22
6HR MIN TEMP:  28; 6HR MAX TEMP:  31;

BOSCOBEL       CLOUDY    34  16  47 S6        30.08F WCI  29
6HR MIN TEMP:  32; 6HR MAX TEMP:  34;

PRAIRIE DU CHI CLOUDY    34  14  43 S5        30.07F WCI  30
6HR MIN TEMP:  32; 6HR MAX TEMP:  34;

PLATTEVILLE    CLOUDY    32  21  63 S9        30.09F WCI  24
6HR MIN TEMP:  31; 6HR MAX TEMP:  32;

$$

WIZ056-057-062-063-064-067-068-230700-
SOUTH CENTRAL WISCONSIN

CITY           SKY/WX    TMP DP  RH WIND       PRES   REMARKS
REEDSBURG      CLOUDY    31  17  55 S8        30.07F WCI  23
6HR MIN TEMP:  29; 6HR MAX TEMP:  31;

BARABOO/DELLS  CLOUDY    31  16  53 S7        30.07F WCI  24
6HR MIN TEMP:  29; 6HR MAX TEMP:  31;

LONE ROCK      CLOUDY    33  18  53 S6        30.10F WCI  28
6HR MIN TEMP:  30; 6HR MAX TEMP:  33;

MINERAL POINT  MOCLDY    32  19  59 S9        30.08F WCI  24
MADISON        CLOUDY    31  18  58 S9        30.10F WCI  23
6HR MIN TEMP:  31; 6HR MAX TEMP:  32;

MIDDLETON      CLOUDY    32  19  58 S7        30.10F WCI  26
6HR MIN TEMP:  32; 6HR MAX TEMP:  32;

WATERTOWN      CLOUDY    31  19  61 SW9       30.11F WCI  22
6HR MIN TEMP:  29; 6HR MAX TEMP:  31;

MONROE         CLOUDY    32  19  59 S10       30.10F WCI  24
JANESVILLE     CLOUDY    32  19  59 S7        30.13F WCI  26
$$

WIZ051-052-058>065-066-070>072-230700-
SOUTHEAST WISCONSIN

CITY           SKY/WX    TMP DP  RH WIND       PRES   REMARKS
MILWAUKEE      CLOUDY    32  20  61 SW7       30.14F WCI  26
6HR MIN TEMP:  31; 6HR MAX TEMP:  32;

WAUKESHA       CLOUDY    30  18  59 SW5       30.13F WCI  25
MILWAUKEE/TIMM CLOUDY    32  14  47 SW6       30.14F WCI  26
RACINE         CLOUDY    32  19  58 SW6       30.17S WCI  26
6HR MIN TEMP:  30; 6HR MAX TEMP:  32;

BURLINGTON     CLOUDY    33  25  71 SW8       30.14F WCI  26
6HR MIN TEMP:  32; 6HR MAX TEMP:  33;

KENOSHA        CLOUDY    32  18  56 SW7       30.15F WCI  26
6HR MIN TEMP:  30; 6HR MAX TEMP:  32;

FOND DU LAC    CLOUDY    29  21  72 SW7       30.10F WCI  22
6HR MIN TEMP:  28; 6HR MAX TEMP:  31; 6HR PCP: TRACE;

SHEBOYGAN      CLOUDY    28  25  88 SW6       30.11F WCI  22
6HR MIN TEMP:  27; 6HR MAX TEMP:  30; 6HR PCP: TRACE;

WEST BEND      CLOUDY    30  19  64 SW9G17    30.11F WCI  22
JUNEAU         CLOUDY    29  19  64 S9        30.11F WCI  21
6HR MIN TEMP:  29; 6HR MAX TEMP:  29;

$$

LSZ147-162-230700-
LAKE SUPERIOR

STATION/POSITION TIME  TEMP    WIND        PRES    WAVE
                       AIR SEA DIR/SP/G            HT/PER
                 (UTC) (F)     (DEG/KT/KT) (MB)    (FT/S)
DEVILS ISLAND    0600   28     230/ 16/ 19 1015.7F
SAXON HARBOR     0530   27     200/  7/ 11 1015.6R
$$

LMZ867-665-643>646-230700-
LAKE MICHIGAN

STATION/POSITION TIME  TEMP    WIND        PRES    WAVE
                       AIR SEA DIR/SP/G            HT/PER
                 (UTC) (F)     (DEG/KT/KT) (MB)    (FT/S)
N MID LAKE BUOY  0550



USA.gov is the U.S. government's official web portal to all federal, state and local government web resources and services.